sat.trackr.live / text

‹ back to catalog

STARLINK-30467

NORAD 57895 · 2023-146E

PAYLOAD ACTIVE UNKNOWN

§ Identity

Operator
Country
US
Launch date
2023-09-20
Launch site
AFETR
Launch vehicle
Mass (kg)
RCS (m²)

Purposes: comms

External: N2YO · Heavens-Above · Gunter

§ Orbital elements

Epoch: 2026-05-24T23:03:46.041120Z

Period
94.27 min
Inclination
42.9984°
Eccentricity
0.0001584
Mean motion
15.27589445 rev/d
Perigee alt
481.9 km
Apogee alt
484.1 km
Semi-major
6,861.2 km
B*
3.7442e-4
RAAN
243.2357°
Arg perigee
262.1547°
Mean anomaly
97.9125°
Rev number
14,871

§ Raw data

STARLINK-304671 57895U 23146E   26144.96094955  .00010058  00000+0  37442-3 0  99902 57895  42.9984 243.2357 0001584 262.1547  97.9125 15.27589445148717

JSON: /api/v1/satellites/57895 · /tle

For live sub-satellite position, see the globe view (requires WebGL).

§ Visibility from observer

Set your observer location to see the next 7 days of passes ≥ 10°. The values pass through the URL so the page stays shareable.

No JS? Fill the form by hand. The geolocation button needs JavaScript.